COSMOS 2251 DEB, 33791

Orbit data source: Space-Track

COSMOS 2251 DEB, 33791 is space debris in LEO originally from a launch on Wed, 16 Jun 1993 UTC launched from the Plesetsk Missile And Space Complex (PKMTR). The debris from Iridium 33, an American commercial communications satellite, has been tracked extensively since its accidental collision with the defunct Russian satellite Cosmos 2251 in 2009. This event, occurring at high speed in low Earth orbit (LEO), generated thousands of pieces of space debris, significantly increasing the risk of further collisions. The Iridium 33 debris cloud has impacted space traffic management and orbital debris mitigation strategies, making it a subject of ongoing study in space situational awareness.

Loading next visibility...
Identifier
33791, 1993-036AG
Orbit
LEO
Country
Flag of CISCIS
Related business
Manufacturer
Unknown
Mission
Spacecraft
Bus & Motor
Unknown
Mass
Unknown
Launch date (UTC)
1993-06-16 (33 years ago)
Launch vehicle
Unknown
Launch site
Plesetsk Missile And Space Complex (PKMTR)
Object type
Payload
Rocket body
Debris
Shape & HBR
Unknown shape, 0.3 m
Radar Cross Section
Medium (>0.1 m² and <1 m²)

Expand to show TLE details & history
Last TLE update: 18 hours ago

TLE from 18 hours ago
0 COSMOS 2251 DEB
1 33791U 93036AG  26070.88859532  .00002796  00000-0  82666-3 0  9992
2 33791  74.1731 233.3321 0028904  41.9730  77.1087 14.43672254893381
Epoch: 2026-03-11T21:19Z
TLE epoch observation values (Epoch: 2026-03-11T21:19:34.635Z)
Latitude
57.05293°
Longitude
-101.89806°
Altitude
751.074 km
Speed
7.487 km/s
True Right ascension
01h 50m 10s
True Declination
56° 53' 44"
Sunlit
Object was in daylight at epoch
Visualization orbit readout
Latitude
Unknown
Longitude
Unknown
Altitude
Unknown
Speed
Unknown
Apparent Right ascension
Unknown
Apparent Declination
Unknown
Sunlit
N/A
Visualization observer readout
Local Sidereal Time
19:36:02
Azimuth
Unknown
Elevation
Unknown
Doppler factor
Unknown
Orbital elements
Apogee altitude
764.581 km
Perigee altitude
723.409 km
Semi-major axis
7,122.132 km
Eccentricity
0.00289
Inclination
74.1731°
RAAN
233.3321°
Arg. of periapsis
41.973°
True anomaly
77.43183°
Mean anomaly
77.1087°
Eccentric anomaly
77.27024°
Mean motion
3.61101 °/min
Orbital period
99.7 mins
BSTAR
0.00082666
Loading maneuver chart data...
Computing Atmospheric mass density...

Documentation

Showing up to 5 results
|